This demonstration page uses our WeatherBlox Daily Observations layout. Learn more.

Left ArrowRight Arrow

39.51506, -84.39828

Hourly Observations for August 2, 2020

Temp ( °F °C ) Dew Point ( °F °C ) Humidity (%) Winds ( mph kmh ) Pressure ( in mb ) Visibility ( mi km ) Precip ( " mm )
12:15 am 00:15 Cloudy 73 22.7 73 22.5 99 99 S 5 7 29.75 1007 10 16.0934 0 0
12:35 am 00:35 Cloudy 73 22.7 73 22.5 99 99 SSW 6 9 29.75 1007 10 16.0934 0 0
12:55 am 00:55 Cloudy 73 22.7 73 22.5 99 99 SW 6 9 29.75 1007 10 16.0934 0 0
1:15 am 01:15 Cloudy 73 22.7 72 22.4 98 98 SSW 8 13 29.75 1007 10 16.0934 0.01 0.254
1:35 am 01:35 Cloudy 73 22.7 72 22.4 98 98 SSW 7 11 29.75 1007 10 16.0934 0.01 0.254
1:55 am 01:55 Cloudy 73 22.6 72 22.3 98 98 SW 9 15 29.74 1007 10 16.0934 0.01 0.254
2:15 am 02:15 Cloudy 73 22.5 72 22.2 98 98 SSW 10 17 29.74 1007 10 16.0934 0 0
2:35 am 02:35 Mostly Cloudy 72 22.4 72 22 98 98 SW 10 17 29.74 1007 10 16.0934 0 0
2:55 am 02:55 Cloudy 72 22.3 71 21.9 98 98 SW 10 17 29.74 1007 10 16.0934 0 0
3:15 am 03:15 Cloudy with Light Rain 72 22.2 71 21.9 98 98 SW 9 15 29.74 1007 10 16.0934 0 0
3:35 am 03:35 Cloudy with Heavy Rain 72 22.1 72 22 99 99 SW 9 15 29.74 1007 5 8.0467 0 0
3:55 am 03:55 Cloudy with Light Rain 72 22.1 71 21.9 99 99 SW 12 19 29.74 1007 5 8.0467 0.01 0.254
4:15 am 04:15 Cloudy with Heavy Rain 72 22 71 21.8 99 99 SSW 18 30 29.74 1007 4 6.43736 0 0
4:35 am 04:35 Cloudy 71 21.8 71 21.5 98 98 SW 15 24 29.74 1007 10 16.0934 0 0
4:55 am 04:55 Cloudy 71 21.6 70 21.1 97 97 SW 17 28 29.75 1007 10 16.0934 0 0
5:15 am 05:15 Cloudy 70 21.2 69 20.8 98 98 SW 15 24 29.75 1008 10 16.0934 0.01 0.254
5:35 am 05:35 Cloudy 69 20.8 69 20.5 98 98 SW 14 22 29.76 1008 7 11.26538 0.01 0.254
5:55 am 05:55 Cloudy with Mist and Fog 69 20.6 69 20.4 99 99 SW 14 22 29.77 1008 5 8.0467 0.01 0.254
6:15 am 06:15 Cloudy 69 20.4 69 20.3 99 99 SW 13 20 29.78 1009 10 16.0934 0.01 0.254
6:35 am 06:35 Cloudy 69 20.3 68 19.8 97 97 WSW 12 19 29.79 1009 10 16.0934 0.01 0.254
6:55 am 06:55 Cloudy with Drizzle 68 19.8 67 19.4 98 98 WSW 13 20 29.81 1009 2.5 4.02335 0.02 0.508
7:15 am 07:15 Cloudy 67 19.6 66 19 96 96 WSW 13 20 29.82 1010 10 16.0934 0 0
7:35 am 07:35 Cloudy 67 19.4 65 18.5 95 95 WSW 14 22 29.83 1010 10 16.0934 0.01 0.254
7:55 am 07:55 Cloudy with Rain 66 18.8 65 18.2 96 96 WSW 18 30 29.84 1010 2 3.21868 0.02 0.508
8:15 am 08:15 Cloudy with Drizzle 65 18.4 65 18.2 99 99 WSW 13 20 29.85 1011 2.5 4.02335 0.01 0.254
8:35 am 08:35 Cloudy 66 18.7 64 18 96 96 WSW 13 20 29.86 1011 10 16.0934 0.01 0.254
8:55 am 08:55 Cloudy 65 18.4 64 17.8 96 96 WSW 14 22 29.87 1011 7 11.26538 0.02 0.508
9:15 am 09:15 Cloudy 65 18.4 64 17.7 96 96 WSW 12 19 29.88 1012 10 16.0934 0.01 0.254
9:35 am 09:35 Cloudy 65 18.6 64 17.8 95 95 W 10 17 29.89 1012 10 16.0934 0.02 0.508
9:55 am 09:55 Cloudy 66 18.7 64 17.9 95 95 WSW 12 19 29.9 1012 10 16.0934 0.03 0.762
10:15 am 10:15 Cloudy with Mist and Fog 66 18.8 64 18 95 95 W 10 17 29.91 1013 5 8.0467 0 0
10:35 am 10:35 Cloudy with Mist and Fog 66 19 65 18.4 96 96 WSW 10 17 29.91 1013 3.5 5.63269 0.01 0.254
10:55 am 10:55 Cloudy with Mist and Fog 67 19.4 65 18.4 94 94 W 13 20 29.92 1013 7 11.26538 0.02 0.508
11:15 am 11:15 Cloudy 67 19.4 64 18 92 92 W 12 19 29.93 1013 10 16.0934 0.01 0.254
11:35 am 11:35 Cloudy 69 20.5 65 18.4 88 88 W 10 17 29.92 1013 10 16.0934 0.01 0.254
11:55 am 11:55 Cloudy 68 20.2 64 18 87 87 W 10 17 29.93 1014 10 16.0934 0.02 0.508
12:15 pm 12:15 Cloudy 69 20.5 64 17.9 85 85 W 10 17 29.93 1014 10 16.0934 0.01 0.254
12:35 pm 12:35 Cloudy 72 22.1 65 18.2 79 79 W 17 28 29.93 1014 10 16.0934 0.01 0.254
12:55 pm 12:55 Cloudy 72 22.3 64 18 77 77 WNW 12 19 29.93 1014 10 16.0934 0.02 0.508
1:15 pm 13:15 Cloudy 73 23 65 18.2 74 74 W 13 20 29.93 1013 10 16.0934 0.01 0.254
1:35 pm 13:35 Cloudy 74 23.2 64 17.7 71 71 W 16 26 29.93 1013 10 16.0934 0.01 0.254
1:55 pm 13:55 Cloudy 74 23.5 65 18.3 73 73 W 14 22 29.93 1013 10 16.0934 0.01 0.254
2:15 pm 14:15 Cloudy 76 24.2 66 18.8 72 72 W 9 15 29.92 1013 10 16.0934 0 0
2:35 pm 14:35 Partly Cloudy 77 25.1 65 18.5 67 67 WSW 14 22 29.92 1013 10 16.0934 0 0
2:55 pm 14:55 Mostly Cloudy 76 24.6 65 18.4 68 68 WSW 10 17 29.92 1013 10 16.0934 0 0
3:15 pm 15:15 Mostly Cloudy 78 25.5 66 18.9 67 67 SW 7 11 29.92 1013 10 16.0934 0 0
3:35 pm 15:35 Partly Cloudy 80 26.8 66 18.7 61 61 WSW 12 19 29.91 1013 10 16.0934 0 0
3:55 pm 15:55 Mostly Cloudy 78 25.5 64 17.7 62 62 W 14 22 29.91 1013 10 16.0934 0 0
4:15 pm 16:15 Partly Cloudy 80 26.4 65 18.5 62 62 SW 14 22 29.91 1013 10 16.0934 0 0
4:35 pm 16:35 Partly Cloudy 77 24.9 65 18.4 67 67 W 12 19 29.91 1013 10 16.0934 0 0
4:55 pm 16:55 Mostly Cloudy 80 26.5 67 19.2 64 64 SW 12 19 29.91 1013 10 16.0934 0 0
5:15 pm 17:15 Partly Cloudy 80 26.8 64 17.9 58 58 W 13 20 29.91 1013 10 16.0934 0 0
5:35 pm 17:35 Sunny 80 26.6 65 18.1 60 60 SW 14 22 29.91 1013 10 16.0934 0 0
5:55 pm 17:55 Partly Cloudy 80 26.7 65 18.3 60 60 WSW 9 15 29.91 1013 10 16.0934 0 0
6:15 pm 18:15 Partly Cloudy 79 26.2 65 18.6 63 63 SW 9 15 29.91 1013 10 16.0934 0 0
6:35 pm 18:35 Partly Cloudy 79 26.1 64 17.9 61 61 WSW 8 13 29.91 1013 10 16.0934 0 0
6:55 pm 18:55 Mostly Cloudy 79 26.1 66 18.7 64 64 SW 8 13 29.91 1013 10 16.0934 0 0
7:15 pm 19:15 Partly Cloudy 78 25.7 65 18.2 63 63 WSW 7 11 29.91 1013 10 16.0934 0 0
7:35 pm 19:35 Sunny 78 25.6 65 18.4 65 65 WSW 7 11 29.92 1013 10 16.0934 0 0
7:55 pm 19:55 Sunny 77 25 65 18.4 67 67 WSW 5 7 29.92 1013 10 16.0934 0 0
8:15 pm 20:15 Sunny 76 24.2 66 18.9 72 72 SW 5 7 29.92 1013 10 16.0934 0 0
8:35 pm 20:35 Sunny 74 23.1 66 19.1 78 78 SW 5 7 29.94 1014 10 16.0934 0 0
8:55 pm 20:55 Clear 72 22.4 67 19.4 83 83 Calm 29.95 1014 10 16.0934 0 0
9:15 pm 21:15 Clear 70 21.1 68 19.9 93 93 Calm 29.95 1014 10 16.0934 0 0
9:35 pm 21:35 Mostly Cloudy 69 20.8 69 20.3 97 97 Calm 29.96 1015 10 16.0934 0 0
9:55 pm 21:55 Partly Cloudy 70 21.2 68 19.8 92 92 Calm 29.96 1015 10 16.0934 0 0
10:15 pm 22:15 Clear 69 20.6 68 19.8 95 95 Calm 29.97 1015 10 16.0934 0 0
10:35 pm 22:35 Clear 69 20.4 68 19.9 97 97 Calm 29.97 1015 10 16.0934 0 0
10:55 pm 22:55 Clear 67 19.7 67 19.4 98 98 Calm 29.98 1015 10 16.0934 0 0
11:15 pm 23:15 Clear 67 19.6 67 19.3 98 98 Calm 29.98 1015 10 16.0934 0 0
11:35 pm 23:35 Clear 67 19.6 67 19.4 99 99 Calm 29.98 1015 7 11.26538 0 0
11:55 pm 23:55 Clear 66 19 66 18.9 99 99 Calm 29.98 1015 10 16.0934 0 0

Powered by AerisWeather